This demonstration page uses our WeatherBlox Daily Observations layout. Learn more.

Left ArrowRight Arrow

41.55636, -103.73856

Hourly Observations for December 1, 2021

Temp ( °F °C ) Dew Point ( °F °C ) Humidity (%) Winds ( mph kmh ) Pressure ( in mb ) Visibility ( mi km ) Precip ( " mm )
12:58 am 00:58 Clear 45 7 15 -9.5 30 30 W 7 11 30.04 1017 10 16 N/A
1:58 am 01:58 Partly Cloudy 42 5.6 15 -9.7 33 33 W 7 11 30.04 1017 10 16 N/A
2:58 am 02:58 Mostly Cloudy 40 4.7 15 -9.2 36 36 W 7 11 30.06 1018 10 16 N/A
3:58 am 03:58 Mostly Cloudy 46 7.6 15 -9.7 28 28 W 8 13 30.05 1018 10 16 N/A
4:58 am 04:58 Mostly Cloudy 47 8.6 16 -9.1 28 28 WSW 12 19 30.03 1017 10 16 N/A
5:58 am 05:58 Mostly Cloudy 45 7.3 19 -7.4 35 35 WSW 7 11 30.04 1017 10 16 N/A
6:58 am 06:58 Mostly Cloudy 47 8.4 20 -6.6 34 34 WSW 8 13 30.06 1018 10 16 N/A
7:58 am 07:58 Sunny 49 9.4 22 -5.7 34 34 W 13 20 30.08 1019 10 16 N/A
8:58 am 08:58 Sunny 53 11.9 23 -5 31 31 W 16 26 30.07 1018 10 16 N/A
9:58 am 09:58 Sunny 56 13.6 23 -5.1 27 27 W 16 26 30.08 1019 10 16 N/A
10:58 am 10:58 Sunny 60 15.3 23 -5.1 24 24 WNW 25 41 30.05 1018 10 16 N/A
11:58 am 11:58 Sunny 63 17.3 23 -4.9 22 22 WNW 22 35 30.02 1017 10 16 N/A
12:58 pm 12:58 Sunny 67 19.7 23 -5.1 18 18 WNW 23 37 29.99 1016 10 16 N/A
1:58 pm 13:58 Sunny 69 20.8 23 -5 17 17 WNW 25 41 29.98 1015 10 16 N/A
2:58 pm 14:58 Sunny 68 20.1 23 -4.8 18 18 W 22 35 29.97 1015 10 16 N/A
3:58 pm 15:58 Sunny 66 18.7 24 -4.6 20 20 WNW 22 35 29.97 1015 10 16 N/A
4:58 pm 16:58 Clear 61 16 24 -4.6 24 24 WNW 18 30 30.01 1016 10 16 N/A
5:58 pm 17:58 Clear 58 14.6 24 -4.7 26 26 WNW 21 33 30.03 1017 10 16 N/A
6:58 pm 18:58 Clear 57 13.9 23 -4.8 27 27 W 14 22 30.04 1017 10 16 N/A
7:58 pm 19:58 Clear 57 13.7 23 -4.8 28 28 WNW 17 28 30.04 1017 10 16 N/A
8:58 pm 20:58 Clear 50 10 23 -5 35 35 W 10 17 30.05 1018 10 16 N/A
9:58 pm 21:58 Clear 55 12.5 23 -4.8 30 30 W 16 26 30.04 1017 10 16 N/A
10:58 pm 22:58 Clear 50 9.9 23 -5.1 35 35 WSW 14 22 30.06 1018 10 16 N/A
11:58 pm 23:58 Clear 54 12.2 23 -4.8 30 30 W 14 22 30.03 1017 10 16 N/A

Powered by AerisWeather